Voltar ao catálogo

LUCH 5V

AtivoComunicaçõesGEO
NORAD 39727·PAYLOAD·🇷🇺 Russia

Lançado Apr 28, 2014 de Baikonur Cosmodrome

Loading…

TLE

AtualizadoSource: Space-Track

Época: Sep 14, 2026, 12:32 UTC

1 39727U 14023A   26257.52261536 -.00000275  00000-0  00000-0 0  9995
2 39727   5.3508  68.7676 0002589 138.1375  69.4787  1.00270323 45258

Acompanhe LUCH 5V em tempo real com AllMySat

Download on the App Store